Location: Recife
(8.0585°S, 34.8848°W)
Time: 08:31:39
(UTC-03:00)

Vanguard 3 - Pass Details

Date: 16 April 2026
Orbit: 507 x 3204 km, 33.4° (Epoch: 11 May)

Event Time Altitude Azimuth Distance (km) Brightness Sun altitude
Rises 04:42:28 0° 341° (NNW) 3,703 10.4 -10.4°
Reaches altitude 10° 04:45:21 10° 356° (N) 3,086 10.2 -9.7°
Maximum altitude 04:51:29 23° 47° (NE) 2,877 10.7 -8.2°
Drops below altitude 10° 05:00:28 10° 94° (E) 4,735 12.7 -6.0°
Sets 05:06:16 0° 105° (ESE) 6,244 13.1 -4.6°
